Location: Unspecified
(17.6330°N, 0.0000°E)
Time: 20:13:42
(UTC+00:00)

A-11 Canister half - Pass Details

Date: 22 June 2019
Orbit: 1514 x 1685 km, 47.2° (Epoch: 22 July)

Event Time Altitude Azimuth Distance (km) Brightness Sun altitude
Rises 15:43:26 0° 329° (NNW) 4,757 12.1 38.1°
Reaches altitude 10° 15:47:54 10° 347° (NNW) 3,741 11.5 37.1°
Maximum altitude 15:54:06 19° 29° (NNE) 3,055 10.6 35.7°
Drops below altitude 10° 16:00:12 10° 71° (ENE) 3,679 10.7 34.3°
Sets 16:04:29 0° 88° (E) 4,651 11.0 33.3°
